Home > Weather > Târgu Mureş > Past weeks

Flag for Romania Weather for the Past 2 Weeks in Târgu Mureş, Romania

Now
43 °F

Clear.


Feels Like: 43 °F
Forecast: 48 / 65 °F
Wind: No wind

Location: Tirgu Mures Airport

Current Time: Apr 29, 2016 at 7:43:48 AM

Latest Report: Apr 29, 2016 at 6:30 AM


Visibility: 10 mi

Pressure: 30.04 "Hg

Humidity: 93%

Dew Point: 41 °F

Location of Târgu MureşLocation

Historic Weather in Târgu Mureş — Graph

°F

Târgu Mureş Temperature Yesterday

Maximum temperature yesterday: 63 °F (at 1:30 PM)
Minimum temperature yesterday: 39 °F (at 1:00 AM)
Average temperature yesterday: 53 °F

High & Low Weather Summary for the Past Weeks

 TemperatureHumidityPressure
High81 °F (Apr 17, 4:30 PM)100% (Apr 14, 6:30 AM)30.30 "Hg (Apr 14, 6:30 AM)
Low30 °F (Apr 22, 6:00 AM)30% (Apr 18, 5:00 PM)29.42 "Hg (Apr 24, 4:30 PM)
Average54 °F69%29.88 "Hg
* Reported Apr 14 6:00 AM — Apr 29 6:30 AM, Târgu Mureş, Weather by CustomWeather, © 2016

Note: Actual official high and low records may vary slightly from our data, if they occured in-between our weather recording intervals... More about our weather records

Advertising

Târgu Mureş Weather History for the Previous 24 Hours

Scroll right to see more
 ConditionsComfort  
Time TempWeatherWind HumidityBarometerVisibility
6:30 AM
Fri, Apr 29
43 °FClear.No wind93%30.04 "Hg10 mi
5:30 AM45 °FClear.No wind93%30.04 "Hg10 mi
4:00 AM43 °FClear.5 mph93%30.04 "Hg5 mi
3:00 AM43 °FClear.No wind93%30.07 "Hg10 mi
2:00 AM43 °FClear.No wind93%30.07 "Hg10 mi
1:00 AM45 °FClear.No wind93%30.07 "Hg10 mi
12:00 AM45 °FClear.No wind93%30.07 "Hg10 mi
11:00 PM
Thu, Apr 28
50 °FClear.No wind82%30.07 "Hg10 mi
10:00 PM50 °FClear.2 mph82%30.07 "Hg10 mi
9:00 PM52 °FSunny.2 mph77%30.04 "Hg10 mi
8:30 PM54 °FSunny.5 mph77%30.04 "Hg10 mi
8:00 PM55 °FSunny.1 mph77%30.04 "Hg10 mi
7:30 PM59 °FPassing clouds.2 mph63%30.04 "HgN/A
7:00 PM59 °FPassing clouds.6 mph63%30.04 "HgN/A
6:30 PM61 °FPartly sunny.5 mph59%30.04 "HgN/A
6:00 PM61 °FPassing clouds.7 mph59%30.04 "HgN/A
5:30 PM61 °FPassing clouds.10 mph55%30.04 "HgN/A
5:00 PM61 °FPassing clouds.7 mph59%30.04 "HgN/A
4:30 PM63 °FPassing clouds.10 mph56%30.04 "HgN/A
4:00 PM61 °FPassing clouds.7 mph59%30.04 "HgN/A
3:30 PM61 °FScattered clouds.6 mph55%30.04 "HgN/A
3:00 PM63 °FPassing clouds.6 mph56%30.04 "HgN/A
2:30 PM63 °FScattered clouds.6 mph56%30.04 "HgN/A
2:00 PM63 °FPassing clouds.8 mph56%30.04 "HgN/A
1:30 PM63 °FPassing clouds.2 mph56%30.04 "HgN/A
1:00 PM61 °FPassing clouds.2 mph59%30.04 "HgN/A
12:30 PM59 °FScattered clouds.7 mph59%30.04 "HgN/A
12:00 PM59 °FPassing clouds.3 mph55%30.04 "HgN/A
11:00 AM57 °FPassing clouds.3 mph67%30.04 "HgN/A
10:30 AM55 °FPassing clouds.2 mph63%30.04 "HgN/A
8:30 AM46 °FSunny.5 mph82%30.01 "Hg10 mi
8:00 AM45 °FPassing clouds.5 mph81%30.01 "HgN/A
7:00 AM39 °FClear.7 mph93%29.98 "Hg10 mi
Weather by CustomWeather, © 2016

See weather overviewHow to use our weather pages